This is the latest recevied weather packets stored in our database for station/object W4NRG-1. If no packets are shown the sender has not sent any weather packets the latest 10 day(s).
| Time | Temp. | Humidity | Pressure | Rain* | Wind** | Luminosity | Snow |
|---|---|---|---|---|---|---|---|
| 1777511591 | 12.22° C | 91% | 1009.4 hPa | 0 mm | - | - | - |
| 1777511289 | 12.22° C | 91% | 1009.4 hPa | 0 mm | - | - | - |
| 1777510989 | 12.22° C | 90% | 1009.3 hPa | 0 mm | - | - | - |
| 1777510686 | 12.22° C | 90% | 1009.4 hPa | 0 mm | - | - | - |
| 1777510382 | 12.22° C | 90% | 1009.1 hPa | 0 mm | - | - | - |
| 1777510078 | 12.22° C | 90% | 1009.1 hPa | 0 mm | - | - | - |
| 1777509776 | 12.22° C | 89% | 1009.2 hPa | 0 mm | - | - | - |
| 1777509471 | 12.22° C | 89% | 1009.3 hPa | 0 mm | - | - | - |
| 1777509169 | 12.22° C | 89% | 1009.2 hPa | 0 mm | - | - | - |
| 1777508866 | 12.78° C | 88% | 1009.4 hPa | 0 mm | - | - | - |
| 1777508563 | 12.78° C | 88% | 1009.1 hPa | 0 mm | - | - | - |
| 1777508260 | 12.78° C | 88% | 1009.3 hPa | 0 mm | - | - | - |
| 1777507957 | 12.78° C | 87% | 1009.3 hPa | 1.27 mm | - | - | - |
| 1777507653 | 13.33° C | 85% | 1009.4 hPa | 1.78 mm | - | - | - |
| 1777507351 | 13.33° C | 84% | 1009.4 hPa | 3.05 mm | - | - | - |
| 1777507048 | 13.89° C | 82% | 1009.5 hPa | 3.05 mm | - | - | - |
| 1777506746 | 14.44° C | 79% | 1009.8 hPa | 1.27 mm | - | - | - |
| 1777506441 | 14.44° C | 77% | 1009.4 hPa | 0 mm | - | - | - |
| 1777506137 | 14.44° C | 76% | 1009.3 hPa | 0 mm | - | - | - |
| 1777505833 | 14.44° C | 75% | 1009.3 hPa | 0 mm | - | - | - |
| 1777505530 | 15° C | 75% | 1009.7 hPa | 0 mm | - | - | - |
| 1777505226 | 15° C | 74% | 1009.7 hPa | 0 mm | - | - | - |
| 1777504923 | 15° C | 74% | 1009.4 hPa | 0 mm | - | - | - |
| 1777504620 | 15° C | 73% | 1009.6 hPa | 0 mm | - | - | - |
| 1777504316 | 15° C | 74% | 1009.7 hPa | 0 mm | - | - | - |
* Rain latest hour (hover to see other rain measurements)
** Current wind speed in m/s (hover to see current wind gust speed)